Glasgow, United Kingdom

11:35 PM BST on May 25, 2018 (GMT +0100)
Glasgow

Weather History for EGPF - February, 2018

Change the Weather History Date:

Wednesday, February 14, 2018

  Actual Average Record
Temperature  
Mean Temperature 38 °F -  
Max Temperature 42 °F 45 °F 53 °F (1998)
Min Temperature 33 °F 33 °F 23 °F (2002)
Degree Days  
Heating Degree Days 28    
Moisture  
Dew Point 34 °F    
Average Humidity 80    
Maximum Humidity 93    
Minimum Humidity 70    
Precipitation  
Precipitation 0.00 in - - ()
Sea Level Pressure  
Sea Level Pressure 29.27 in    
Wind  
Wind Speed 12 mph ()    
Max Wind Speed 28 mph    
Max Gust Speed 39 mph    
Visibility 6.0 miles    
Events Rain    
Averages and records for this station are not official NWS values.
T = Trace of Precipitation, MM = Missing Value Source: Averaged Metar Reports

Daily Weather History Graph

Daily Weather History Graph

Search for Another Location

Airport or City:

Astronomy

Feb. 14, 2018 Rise Set
Actual Time 7:45 AM GMT 5:19 PM GMT
Civil Twilight 7:06 AM GMT 5:58 PM GMT
Nautical Twilight 6:22 AM GMT 6:41 PM GMT
Astronomical Twilight 5:40 AM GMT 7:24 PM GMT
Moon 7:13 AM GMT (2/14) 3:51 PM GMT (2/14)
Length of Visible Light 10h 52m
Length of Day
9h 34m
Waning Crescent, 2% of the Moon is Illuminated
Feb 14
Waning Crescent
Feb 15
New
Feb 23
First Quarter
Mar 2
Full
Mar 9
Last Quarter

Hourly Weather History & Observations

Time (GMT) Temp. Windchill Dew Point Humidity Pressure Visibility Wind Dir Wind Speed Gust Speed Precip Events Conditions
12:20 AM 35.6 °F 29.9 °F 28.4 °F 75% 29.56 in 6.2 mi SSE 6.9 mph - N/A   Unknown
12:50 AM 35.6 °F 28.0 °F 28.4 °F 75% 29.53 in 6.2 mi SSE 10.4 mph - N/A   Unknown
1:20 AM 35.6 °F 29.2 °F 28.4 °F 75% 29.53 in 6.2 mi SE 8.1 mph - N/A   Unknown
1:50 AM 33.8 °F 27.7 °F 28.4 °F 81% 29.50 in 6.2 mi ESE 6.9 mph - N/A   Unknown
2:20 AM 35.6 °F 28.6 °F 28.4 °F 75% 29.50 in 6.2 mi ESE 9.2 mph - N/A   Scattered Clouds
2:50 AM 35.6 °F 29.2 °F 30.2 °F 81% 29.47 in 6.2 mi ESE 8.1 mph - N/A   Unknown
3:20 AM 35.6 °F 29.2 °F 30.2 °F 81% 29.47 in 6.2 mi SE 8.1 mph - N/A   Unknown
3:50 AM 37.4 °F 32.1 °F 30.2 °F 75% 29.44 in 6.2 mi SE 6.9 mph - N/A   Unknown
4:20 AM 37.4 °F 30.3 °F 30.2 °F 75% 29.44 in 6.2 mi SSE 10.4 mph - N/A   Scattered Clouds
4:50 AM 37.4 °F 30.3 °F 32.0 °F 81% 29.42 in 6.2 mi SE 10.4 mph - N/A   Unknown
5:20 AM 37.4 °F 28.9 °F 32.0 °F 81% 29.39 in 6.2 mi SE 13.8 mph - N/A   Unknown
5:50 AM 37.4 °F 28.9 °F 32.0 °F 81% 29.39 in 6.2 mi SE 13.8 mph - N/A   Partly Cloudy
6:20 AM 39.2 °F 29.6 °F 32.0 °F 75% 29.36 in 6.2 mi SSE 19.6 mph - N/A   Partly Cloudy
6:50 AM 39.2 °F 29.3 °F 32.0 °F 75% 29.36 in 6.2 mi SE 20.7 mph 32.2 mph N/A   Scattered Clouds
7:20 AM 37.4 °F 27.8 °F 32.0 °F 81% 29.33 in 6.2 mi SE 17.3 mph - N/A   Scattered Clouds
7:50 AM 37.4 °F 27.8 °F 30.2 °F 75% 29.30 in 6.2 mi SE 17.3 mph - N/A   Overcast
8:20 AM 37.4 °F 29.3 °F 30.2 °F 75% 29.30 in 6.2 mi SE 12.7 mph - N/A   Mostly Cloudy
8:50 AM 39.2 °F 29.8 °F 30.2 °F 70% 29.27 in 6.2 mi SE 18.4 mph 34.5 mph N/A   Mostly Cloudy
9:20 AM 39.2 °F 30.8 °F 30.2 °F 70% 29.27 in 6.2 mi SSE 15.0 mph - N/A   Overcast
9:50 AM 39.2 °F 29.6 °F 32.0 °F 75% 29.24 in 6.2 mi SSE 19.6 mph 33.4 mph N/A Rain Light Rain Showers
10:20 AM 37.4 °F 27.8 °F 32.0 °F 81% 29.24 in - SSE 17.3 mph 29.9 mph N/A Rain Light Rain
10:50 AM 37.4 °F 30.8 °F 33.8 °F 87% 29.21 in 6.2 mi SE 9.2 mph - N/A Rain Light Rain
11:20 AM 39.2 °F 31.2 °F 33.8 °F 81% 29.21 in 6.2 mi SSE 13.8 mph 26.5 mph N/A   Overcast
11:50 AM 39.2 °F 31.2 °F 33.8 °F 81% 29.18 in 6.2 mi SSE 13.8 mph - N/A Rain Light Rain
12:20 PM 39.2 °F 30.5 °F 33.8 °F 81% 29.18 in 6.2 mi SSE 16.1 mph 32.2 mph N/A Rain Light Rain
12:50 PM 39.2 °F 29.8 °F 33.8 °F 81% 29.15 in 6.2 mi SSE 18.4 mph 32.2 mph N/A Rain Light Rain
1:20 PM 41.0 °F 33.5 °F 35.6 °F 81% 29.15 in 3.7 mi SSE 13.8 mph - N/A Rain Light Rain
1:50 PM 41.0 °F 33.5 °F 37.4 °F 87% 29.12 in 6.2 mi South 13.8 mph - N/A Rain Light Rain
2:20 PM 42.8 °F 33.3 °F 37.4 °F 81% 29.09 in 4.3 mi South 24.2 mph - N/A Rain Light Rain
2:50 PM 42.8 °F 32.7 °F 37.4 °F 81% 29.09 in 6.2 mi South 27.6 mph 39.1 mph N/A Rain Light Rain
3:20 PM 42.8 °F 33.5 °F 39.2 °F 87% 29.09 in 5.6 mi South 23.0 mph - N/A Rain Light Rain
3:50 PM 42.8 °F 34.5 °F 39.2 °F 87% 29.09 in 6.2 mi South 18.4 mph - N/A Rain Light Rain
4:20 PM 42.8 °F 34.3 °F 41.0 °F 93% 29.12 in 3.7 mi South 19.6 mph - N/A Rain Light Rain
4:50 PM 42.8 °F 35.8 °F 39.2 °F 87% 29.15 in 6.2 mi SW 13.8 mph - N/A Rain Light Rain
5:20 PM 41.0 °F 33.9 °F 37.4 °F 87% 29.15 in 6.2 mi SW 12.7 mph - N/A   Unknown
5:50 PM 41.0 °F 36.4 °F 35.6 °F 81% 29.15 in 6.2 mi WSW 6.9 mph - N/A   Unknown
6:20 PM 42.8 °F 35.8 °F 37.4 °F 81% 29.15 in 6.2 mi SW 13.8 mph - N/A   Unknown
6:50 PM 41.0 °F 33.9 °F 35.6 °F 81% 29.18 in 6.2 mi SW 12.7 mph - N/A   Unknown
7:20 PM 41.0 °F 33.9 °F 35.6 °F 81% 29.18 in 6.2 mi SW 12.7 mph - N/A   Unknown
7:50 PM 42.8 °F 36.6 °F 37.4 °F 81% 29.18 in 6.2 mi SSW 11.5 mph - N/A   Unknown
8:20 PM 41.0 °F 33.5 °F 35.6 °F 81% 29.18 in 6.2 mi SSW 13.8 mph - N/A   Unknown
8:50 PM 41.0 °F 33.5 °F 33.8 °F 76% 29.21 in 6.2 mi SSW 13.8 mph - N/A   Unknown
9:20 PM 42.8 °F 34.8 °F 35.6 °F 76% 29.21 in 6.2 mi South 17.3 mph - N/A   Unknown
9:50 PM 41.0 °F 32.5 °F 35.6 °F 81% 29.21 in 6.2 mi South 17.3 mph - N/A   Unknown
10:20 PM 41.0 °F 32.5 °F 35.6 °F 81% 29.21 in 6.2 mi South 17.3 mph - N/A   Unknown
10:50 PM 41.0 °F 32.5 °F 35.6 °F 81% 29.21 in 6.2 mi South 17.3 mph 29.9 mph N/A   Unknown
11:20 PM 41.0 °F 33.5 °F 35.6 °F 81% 29.21 in 6.2 mi SSW 13.8 mph - N/A   Unknown
11:50 PM 42.8 °F 34.0 °F 35.6 °F 76% 29.24 in 6.2 mi SSW 20.7 mph 32.2 mph N/A Rain Light Rain